Flag for U.S.A. Weather past 2 weeks in Detroit, Michigan, U.S.A.

Now
50 °F

Broken clouds.


Feels Like: 44 °F
Forecast: 42 / 53 °F
Wind: 20 mph from West

Location: Detroit City Airport

Current Time: Apr 21, 2015 at 5:59:34 PM

Latest Report: Apr 21, 2015 at 4:53 PM


Visibility: 10 mi

Pressure: 29.59 "Hg

Humidity: 39%

Dew point: 26 °F

Location of DetroitLocation

Historic Weather in Detroit — Graph

°F

Detroit temperature yesterday

Maximum temperature yesterday: 62 °F (at 11:53 AM)
Minimum temperature yesterday: 46 °F (at 11:53 PM)
Average temperature yesterday: 55 °F

Past Weeks' High & Low Weather Summary

 TemperatureHumidityPressure
High71 °F (Apr 13, 1:53 PM)100% (Apr 9, 3:53 AM)30.40 "Hg (Apr 9, 3:53 AM)
Low36 °F (Apr 11, 5:53 AM)16% (Apr 18, 6:53 PM)29.24 "Hg (Apr 20, 5:53 AM)
Average51 °F64%30.00 "Hg
* Reported Apr 6 3:53 PM — Apr 21 3:53 PM, Detroit, Weather by CustomWeather, © 2015

Note: Actual official high and low records may vary slightly from our data, if they occured in-between our weather recording intervals... More about our weather records

Advertising

Detroit weather history for previous 24 hours

 ConditionsComfort  
Time TempWeatherWind HumidityBarometerVisibility
3:53 PM
Tue, Apr 21
50 °FPartly sunny.20 mph41%29.57 "Hg10 mi
2:53 PM50 °FPartly sunny.21 mph48%29.57 "Hg10 mi
1:53 PM49 °FMostly cloudy.22 mph44%29.57 "Hg10 mi
12:53 PM48 °FMostly cloudy.24 mph41%29.57 "Hg10 mi
11:53 AM48 °FOvercast.23 mph43%29.57 "Hg10 mi
10:53 AM47 °FMore clouds than sun.14 mph50%29.57 "Hg10 mi
9:53 AM46 °FCloudy.25 mph58%29.57 "Hg10 mi
8:53 AM45 °FBroken clouds.20 mph65%29.58 "Hg10 mi
7:53 AM44 °FOvercast.14 mph65%29.59 "Hg10 mi
6:53 AM43 °FOvercast.14 mph68%29.59 "Hg10 mi
5:53 AM42 °FPassing clouds.15 mph71%29.59 "Hg10 mi
4:53 AM43 °FPassing clouds.12 mph62%29.59 "Hg10 mi
3:53 AM45 °FOvercast.14 mph58%29.59 "Hg10 mi
2:53 AM45 °FOvercast.10 mph60%29.59 "Hg10 mi
1:53 AM45 °FOvercast.7 mph60%29.59 "Hg10 mi
12:53 AM46 °FOvercast.13 mph63%29.59 "Hg10 mi
11:53 PM
Mon, Apr 20
46 °FMostly cloudy.14 mph66%29.58 "Hg10 mi
10:53 PM47 °FMostly cloudy.13 mph66%29.57 "Hg10 mi
9:53 PM47 °FOvercast.13 mph71%29.56 "Hg10 mi
8:53 PM48 °FMore clouds than sun.15 mph68%29.53 "Hg10 mi
7:53 PM49 °FMostly cloudy.16 mph74%29.50 "Hg10 mi
6:53 PM51 °FLight rain. Mostly cloudy.23 mph77%29.45 "Hg10 mi
5:53 PM52 °FLight rain. Mostly cloudy.22 mph75%29.42 "Hg10 mi
Weather by CustomWeather, © 2015

See weather overviewHow to use our weather pages